When you browse on this site, cookies collect data to enhance your experience and personalize the content and advertising you see.
Visit our Privacy Policy to learn more. By continuing to use the site, you agree to this use of cookies and data.
  • în România
  • Lista ţărilor
  • Pe 7 zile
  • Temperatura apei
  • Hartă satelitară
  • Meteo pe hartă
  • Widget-uri
  • user-avatar
    Intrare

    Meteo pe oră la Choszczno

    Astăzi, 26 Martie, Marţi

    Timp Temperatura Precipitaţii Vânt Presiune Umiditate
    00:00 +1°C° 0 mm 2 m/s 760 mmHg 94%
    01:00 -1°C° 0 mm 2 m/s 761 mmHg 94%
    02:00 +1°C° 0 mm 2 m/s 761 mmHg 94%
    03:00 0°C° 0 mm 3 m/s 761 mmHg 95%
    04:00 -1°C° 0 mm 4 m/s 761 mmHg 95%
    05:00 -1°C° 0 mm 4 m/s 761 mmHg 94%
    06:00 -1°C° 0 mm 5 m/s 760 mmHg 93%
    07:00 0°C° 0 mm 5 m/s 760 mmHg 91%
    08:00 +1°C° 0 mm 6 m/s 760 mmHg 87%
    09:00 +2°C° 0 mm 7 m/s 760 mmHg 83%
    10:00 +1°C° 0 mm 8 m/s 759 mmHg 78%
    11:00 +2°C° 0.1 mm 8 m/s 759 mmHg 76%
    12:00 +2°C° 0.1 mm 8 m/s 760 mmHg 73%
    13:00 +4°C° 0.1 mm 7 m/s 760 mmHg 71%
    14:00 +4°C° 0 mm 7 m/s 760 mmHg 68%
    15:00 +4°C° 0 mm 7 m/s 760 mmHg 64%
    16:00 +5°C° 0 mm 7 m/s 760 mmHg 61%
    17:00 +3°C° 0 mm 6 m/s 760 mmHg 65%
    18:00 +3°C° 0 mm 4 m/s 761 mmHg 68%
    19:00 +2°C° 0 mm 3 m/s 761 mmHg 71%
    20:00 +1°C° 0 mm 3 m/s 762 mmHg 73%
    21:00 +2°C° 0 mm 2 m/s 763 mmHg 76%
    22:00 +1°C° 0 mm 2 m/s 763 mmHg 78%
    23:00 +1°C° 0 mm 2 m/s 764 mmHg 78%

    Mâine, 27 Martie, Miercuri

    Timp Temperatura Precipitaţii Vânt Presiune Umiditate
    00:00 -1°C° 0 mm 2 m/s 764 mmHg 79%
    01:00 -1°C° 0 mm 2 m/s 764 mmHg 80%
    02:00 -1°C° 0 mm 2 m/s 764 mmHg 80%
    03:00 -1°C° 0 mm 2 m/s 764 mmHg 79%
    04:00 -1°C° 0 mm 2 m/s 764 mmHg 79%
    05:00 -1°C° 0 mm 2 m/s 765 mmHg 77%
    06:00 +1°C° 0 mm 2 m/s 765 mmHg 76%
    07:00 +1°C° 0 mm 3 m/s 765 mmHg 74%
    08:00 +2°C° 0 mm 3 m/s 765 mmHg 78%
    09:00 +3°C° 0 mm 3 m/s 765 mmHg 81%
    10:00 +5°C° 0 mm 4 m/s 766 mmHg 84%
    11:00 +6°C° 0 mm 4 m/s 765 mmHg 78%
    12:00 +7°C° 0 mm 4 m/s 765 mmHg 73%
    13:00 +8°C° 0 mm 4 m/s 765 mmHg 67%
    14:00 +8°C° 0.1 mm 4 m/s 765 mmHg 72%
    15:00 +8°C° 0.1 mm 4 m/s 765 mmHg 77%
    16:00 +7°C° 0.1 mm 4 m/s 765 mmHg 82%
    17:00 +6°C° 0.2 mm 4 m/s 765 mmHg 85%
    18:00 +6°C° 0.2 mm 4 m/s 765 mmHg 89%
    19:00 +5°C° 0.2 mm 4 m/s 765 mmHg 92%
    20:00 +5°C° 0.1 mm 4 m/s 765 mmHg 93%
    21:00 +5°C° 0.1 mm 4 m/s 765 mmHg 94%
    22:00 +7°C° 0.1 mm 3 m/s 765 mmHg 95%
    23:00 +7°C° 0.1 mm 3 m/s 765 mmHg 95%

    Poimâine, 28 Martie, Joi

    Timp Temperatura Precipitaţii Vânt Presiune Umiditate
    00:00 +7°C° 0.1 mm 3 m/s 766 mmHg 96%
    01:00 +7°C° 0.1 mm 3 m/s 766 mmHg 97%
    02:00 +7°C° 0 mm 3 m/s 766 mmHg 96%
    03:00 +7°C° 0 mm 3 m/s 766 mmHg 95%
    04:00 +6°C° 0 mm 4 m/s 766 mmHg 94%
    05:00 +5°C° 0 mm 3 m/s 767 mmHg 94%
    06:00 +5°C° 0 mm 3 m/s 767 mmHg 94%
    07:00 +5°C° 0 mm 3 m/s 767 mmHg 93%
    08:00 +7°C° 0 mm 3 m/s 768 mmHg 87%
    09:00 +8°C° 0 mm 2 m/s 768 mmHg 80%
    10:00 +10°C° 0 mm 2 m/s 769 mmHg 73%
    11:00 +12°C° 0 mm 2 m/s 769 mmHg 68%
    12:00 +13°C° 0 mm 2 m/s 769 mmHg 63%
    13:00 +14°C° 0 mm 2 m/s 769 mmHg 57%
    14:00 +14°C° 0 mm 2 m/s 769 mmHg 57%
    15:00 +14°C° 0 mm 2 m/s 769 mmHg 56%
    16:00 +14°C° 0 mm 2 m/s 769 mmHg 55%
    17:00 +13°C° 0 mm 2 m/s 770 mmHg 63%
    18:00 +10°C° 0 mm 2 m/s 770 mmHg 72%
    19:00 +9°C° 0 mm 2 m/s 770 mmHg 80%
    20:00 +8°C° 0 mm 2 m/s 770 mmHg 84%
    21:00 +7°C° 0 mm 2 m/s 770 mmHg 88%
    22:00 +6°C° 0 mm 2 m/s 771 mmHg 92%
    23:00 +6°C° 0 mm 2 m/s 771 mmHg 93%

    29 Martie, Vineri

    Timp Temperatura Precipitaţii Vânt Presiune Umiditate
    00:00 +6°C° 0 mm 2 m/s 771 mmHg 94%
    01:00 +6°C° 0 mm 2 m/s 771 mmHg 95%
    02:00 +6°C° 0 mm 2 m/s 771 mmHg 95%
    03:00 +6°C° 0 mm 2 m/s 771 mmHg 96%
    04:00 +6°C° 0 mm 2 m/s 771 mmHg 96%
    05:00 +6°C° 0 mm 2 m/s 771 mmHg 96%
    06:00 +6°C° 0 mm 2 m/s 771 mmHg 96%
    07:00 +6°C° 0 mm 2 m/s 771 mmHg 96%
    08:00 +8°C° 0 mm 2 m/s 771 mmHg 89%
    09:00 +10°C° 0 mm 3 m/s 771 mmHg 82%
    10:00 +12°C° 0 mm 3 m/s 771 mmHg 76%
    11:00 +13°C° 0 mm 3 m/s 770 mmHg 70%
    12:00 +14°C° 0 mm 3 m/s 770 mmHg 65%
    13:00 +16°C° 0 mm 3 m/s 770 mmHg 60%
    14:00 +16°C° 0 mm 3 m/s 769 mmHg 60%
    15:00 +17°C° 0 mm 3 m/s 769 mmHg 60%
    16:00 +17°C° 0 mm 3 m/s 769 mmHg 60%
    17:00 +14°C° 0 mm 3 m/s 768 mmHg 65%
    18:00 +14°C° 0 mm 2 m/s 768 mmHg 70%
    19:00 +13°C° 0 mm 2 m/s 768 mmHg 75%
    20:00 +12°C° 0 mm 2 m/s 768 mmHg 80%
    21:00 +10°C° 0 mm 2 m/s 768 mmHg 84%
    22:00 +9°C° 0 mm 2 m/s 768 mmHg 89%
    23:00 +9°C° 0 mm 2 m/s 768 mmHg 90%

    30 Martie, Sâmbătă

    Timp Temperatura Precipitaţii Vânt Presiune Umiditate
    00:00 +8°C° 0 mm 2 m/s 768 mmHg 91%
    01:00 +8°C° 0 mm 2 m/s 767 mmHg 93%
    02:00 +8°C° 0 mm 2 m/s 767 mmHg 93%
    03:00 +7°C° 0 mm 2 m/s 767 mmHg 94%
    04:00 +7°C° 0 mm 2 m/s 767 mmHg 94%
    05:00 +7°C° 0 mm 2 m/s 766 mmHg 93%
    06:00 +8°C° 0 mm 2 m/s 766 mmHg 92%
    07:00 +8°C° 0 mm 2 m/s 766 mmHg 91%
    08:00 +10°C° 0 mm 3 m/s 766 mmHg 84%
    09:00 +12°C° 0 mm 3 m/s 765 mmHg 77%
    10:00 +13°C° 0 mm 3 m/s 765 mmHg 70%
    11:00 +14°C° 0 mm 3 m/s 765 mmHg 65%
    12:00 +15°C° 0 mm 4 m/s 764 mmHg 61%
    13:00 +17°C° 0 mm 4 m/s 764 mmHg 57%
    14:00 +17°C° 0 mm 4 m/s 763 mmHg 56%
    15:00 +17°C° 0 mm 4 m/s 762 mmHg 55%
    16:00 +17°C° 0 mm 3 m/s 762 mmHg 54%
    17:00 +16°C° 0 mm 3 m/s 762 mmHg 59%
    18:00 +13°C° 0 mm 3 m/s 761 mmHg 64%
    19:00 +13°C° 0 mm 2 m/s 761 mmHg 69%
    20:00 +12°C° 0 mm 2 m/s 761 mmHg 72%
    21:00 +10°C° 0 mm 2 m/s 761 mmHg 74%
    22:00 +10°C° 0 mm 2 m/s 760 mmHg 77%
    23:00 +9°C° 0 mm 2 m/s 760 mmHg 80%

    31 Martie, Duminică

    Timp Temperatura Precipitaţii Vânt Presiune Umiditate
    00:00 +9°C° 0 mm 2 m/s 760 mmHg 83%
    01:00 +9°C° 0 mm 2 m/s 760 mmHg 86%
    02:00 +9°C° 0.1 mm 2 m/s 760 mmHg 88%
    03:00 +9°C° 0.1 mm 2 m/s 760 mmHg 89%
    04:00 +9°C° 0.1 mm 3 m/s 760 mmHg 91%
    05:00 +7°C° 0.5 mm 4 m/s 760 mmHg 89%
    06:00 +6°C° 0.5 mm 4 m/s 760 mmHg 88%
    07:00 +6°C° 0.5 mm 5 m/s 761 mmHg 87%
    08:00 +6°C° 0.1 mm 5 m/s 761 mmHg 81%
    09:00 +7°C° 0.1 mm 5 m/s 761 mmHg 75%
    10:00 +7°C° 0.1 mm 6 m/s 762 mmHg 68%
    11:00 +7°C° 0 mm 6 m/s 762 mmHg 63%
    12:00 +8°C° 0 mm 6 m/s 763 mmHg 57%
    13:00 +8°C° 0 mm 6 m/s 763 mmHg 52%
    14:00 +8°C° 0 mm 6 m/s 763 mmHg 50%
    15:00 +7°C° 0 mm 6 m/s 763 mmHg 48%
    16:00 +7°C° 0 mm 6 m/s 763 mmHg 46%
    17:00 +5°C° 0 mm 5 m/s 764 mmHg 51%
    18:00 +4°C° 0 mm 4 m/s 764 mmHg 56%
    19:00 +2°C° 0 mm 3 m/s 765 mmHg 61%
    20:00 +2°C° 0 mm 3 m/s 765 mmHg 67%
    21:00 +1°C° 0 mm 3 m/s 766 mmHg 72%
    22:00 +1°C° 0 mm 3 m/s 766 mmHg 78%
    23:00 +1°C° 0 mm 3 m/s 766 mmHg 78%
    Arată mai mult